| time (UTC) | temp F | wind direction | speed MPH | gust MPH | rain 1hr in | rain 24hr in | rain mn in | humidity % | barometer mb |
| 20260505023004 | 35 | 63 | 2.0 | 5.0 | 0.04 | 0.11 | 0.11 | 87 | 1015.3 |
| 20260505022503 | 36 | 88 | 2.0 | 7.0 | 0.05 | 0.11 | 0.11 | 87 | 1015.3 |
| 20260505022004 | 36 | 93 | 3.0 | 7.0 | 0.06 | 0.11 | 0.11 | 86 | 1015.1 |
| 20260505021503 | 36 | 72 | 3.0 | 6.0 | 0.06 | 0.11 | 0.11 | 86 | 1015.1 |
| 20260505021004 | 36 | 74 | 1.0 | 5.0 | 0.07 | 0.11 | 0.11 | 86 | 1015.2 |
| 20260505020504 | 36 | 64 | 1.0 | 3.0 | 0.06 | 0.10 | 0.10 | 86 | 1015.1 |
| 20260505020004 | 37 | 94 | 1.0 | 3.0 | 0.07 | 0.10 | 0.10 | 86 | 1015.0 |
| 20260505015504 | 37 | 95 | 1.0 | 6.0 | 0.07 | 0.10 | 0.10 | 86 | 1015.0 |
| 20260505015003 | 37 | 27 | 2.0 | 7.0 | 0.09 | 0.10 | 0.10 | 85 | 1015.1 |
| 20260505014504 | 37 | 29 | 5.0 | 8.0 | 0.10 | 0.10 | 0.10 | 85 | 1015.3 |
| 20260505014004 | 37 | 325 | 7.0 | 10.0 | 0.09 | 0.09 | 0.09 | 84 | 1015.5 |
| 20260505013504 | 37 | 311 | 9.0 | 12.0 | 0.08 | 0.08 | 0.08 | 84 | 1015.5 |
| 20260505013004 | 37 | 317 | 5.0 | 10.0 | 0.07 | 0.07 | 0.07 | 84 | 1015.5 |
| 20260505012503 | 37 | 325 | 8.0 | 13.0 | 0.06 | 0.06 | 0.06 | 84 | 1015.4 |
| 20260505012004 | 37 | 305 | 6.0 | 13.0 | 0.05 | 0.05 | 0.05 | 85 | 1015.4 |
| 20260505011503 | 37 | 280 | 8.0 | 13.0 | 0.05 | 0.05 | 0.05 | 84 | 1015.4 |
| 20260505011004 | 37 | 267 | 9.0 | 15.0 | 0.04 | 0.04 | 0.04 | 83 | 1015.5 |
| 20260505010504 | 38 | 246 | 8.0 | 15.0 | 0.04 | 0.04 | 0.04 | 81 | 1015.5 |
| 20260505010004 | 38 | 274 | 6.0 | 15.0 | 0.03 | 0.03 | 0.03 | 80 | 1015.4 |
| 20260505005504 | 39 | 249 | 9.0 | 20.0 | 0.03 | 0.03 | 0.03 | 76 | 1015.4 |
| 20260505005004 | 40 | 266 | 6.0 | 14.0 | 0.01 | 0.01 | 0.01 | 71 | 1015.2 |
| 20260505004504 | 42 | 263 | 12.0 | 18.0 | 0.00 | 0.00 | 0.00 | 68 | 1015.2 |
| 20260505004004 | 43 | 231 | 7.0 | 14.0 | 0.00 | 0.00 | 0.00 | 64 | 1015.1 |
| 20260505003503 | 44 | 192 | 0.0 | 0.0 | 0.00 | 0.00 | 0.00 | 61 | 1015.1 |
| 20260505003004 | 44 | 267 | 0.0 | 0.0 | 0.00 | 0.00 | 0.00 | 60 | 1015.1 |
| 20260505002503 | 45 | 235 | 0.0 | 3.0 | 0.00 | 0.00 | 0.00 | 59 | 1015.2 |
| 20260505002004 | 45 | 215 | 3.0 | 6.0 | 0.00 | 0.00 | 0.00 | 57 | 1015.4 |
| 20260505001503 | 45 | 71 | 0.0 | 2.0 | 0.00 | 0.00 | 0.00 | 57 | 1015.3 |
| 20260505001004 | 45 | 67 | 0.0 | 2.0 | 0.00 | 0.00 | 0.00 | 56 | 1015.2 |
| 20260505000503 | 45 | 5 | 0.0 | 2.0 | 0.00 | 0.00 | 0.00 | 56 | 1015.4 |
| 20260505000004 | 45 | 5 | 1.0 | 2.0 | 0.00 | 0.00 | 0.00 | 56 | 1015.2 |
| 20260504235503 | 45 | 5 | 1.0 | 7.0 | 0.00 | 0.00 | 0.00 | 58 | 1015.2 |
| 20260504235004 | 45 | 338 | 3.0 | 7.0 | 0.00 | 0.00 | 0.00 | 58 | 1015.1 |
| 20260504234503 | 45 | 11 | 5.0 | 10.0 | 0.00 | 0.00 | 0.00 | 59 | 1015.1 |
| 20260504234004 | 45 | 343 | 0.0 | 7.0 | 0.00 | 0.00 | 0.00 | 58 | 1015.0 |
| 20260504233503 | 46 | 352 | 0.0 | 0.0 | 0.00 | 0.00 | 0.00 | 55 | 1014.9 |
| 20260504233004 | 46 | 349 | 0.0 | 0.0 | 0.00 | 0.00 | 0.00 | 51 | 1015.0 |
| 20260504232503 | 47 | 286 | 0.0 | 0.0 | 0.00 | 0.00 | 0.00 | 50 | 1014.8 |
| 20260504232004 | 47 | 218 | 0.0 | 0.0 | 0.00 | 0.00 | 0.00 | 49 | 1014.9 |
| 20260504231503 | 47 | 223 | 0.0 | 0.0 | 0.00 | 0.00 | 0.00 | 49 | 1014.9 |
| 20260504231004 | 47 | 217 | 0.0 | 20.0 | 0.00 | 0.00 | 0.00 | 47 | 1014.8 |
| 20260504230504 | 47 | 215 | 0.0 | 0.0 | 0.00 | 0.00 | 0.00 | 48 | 1014.7 |
| 20260504230003 | 47 | 214 | 0.0 | 0.0 | 0.00 | 0.00 | 0.00 | 49 | 1014.7 |
| 20260504225504 | 47 | 217 | 0.0 | 0.0 | 0.00 | 0.00 | 0.00 | 51 | 1014.6 |
| 20260504225004 | 46 | 216 | 0.0 | 0.0 | 0.00 | 0.00 | 0.00 | 51 | 1014.6 |
| 20260504224504 | 47 | 218 | 0.0 | 0.0 | 0.00 | 0.00 | 0.00 | 52 | 1014.6 |
| 20260504224004 | 47 | 216 | 17.0 | 26.0 | 0.00 | 0.00 | 0.00 | 53 | 1014.5 |
| 20260504223504 | 48 | 215 | 18.0 | 26.0 | 0.00 | 0.00 | 0.00 | 50 | 1014.5 |
| 20260504223004 | 50 | 213 | 13.0 | 22.0 | 0.00 | 0.00 | 0.00 | 44 | 1014.5 |
| 20260504222504 | 50 | 217 | 7.0 | 16.0 | 0.00 | 0.00 | 0.00 | 41 | 1014.7 |
| 20260504222004 | 51 | 208 | 3.0 | 7.0 | 0.00 | 0.00 | 0.00 | 40 | 1014.7 |
| 20260504221505 | 50 | 161 | 3.0 | 6.0 | 0.00 | 0.00 | 0.00 | 41 | 1014.6 |
| 20260504221003 | 50 | 186 | 3.0 | 7.0 | 0.00 | 0.00 | 0.00 | 41 | 1014.6 |
| 20260504220504 | 50 | 174 | 4.0 | 12.0 | 0.00 | 0.00 | 0.00 | 42 | 1014.7 |
| 20260504220003 | 50 | 159 | 6.0 | 12.0 | 0.00 | 0.00 | 0.00 | 42 | 1014.8 |
| 20260504215504 | 50 | 135 | 8.0 | 14.0 | 0.00 | 0.00 | 0.00 | 42 | 1014.8 |
| 20260504215004 | 49 | 141 | 6.0 | 10.0 | 0.00 | 0.00 | 0.00 | 42 | 1014.9 |
| 20260504214504 | 49 | 110 | 3.0 | 8.0 | 0.00 | 0.00 | 0.00 | 41 | 1014.9 |
| 20260504214004 | 50 | 115 | 6.0 | 9.0 | 0.00 | 0.00 | 0.00 | 40 | 1015.0 |
| 20260504213503 | 50 | 137 | 3.0 | 6.0 | 0.00 | 0.00 | 0.00 | 41 | 1015.1 |
| 20260504213004 | 50 | 357 | 1.0 | 5.0 | 0.00 | 0.00 | 0.00 | 40 | 1015.2 |
| 20260504212503 | 50 | 117 | 2.0 | 6.0 | 0.00 | 0.00 | 0.00 | 38 | 1015.0 |
| 20260504212004 | 50 | 116 | 2.0 | 3.0 | 0.00 | 0.00 | 0.00 | 41 | 1015.1 |
| 20260504211503 | 50 | 39 | 3.0 | 5.0 | 0.00 | 0.00 | 0.00 | 37 | 1015.2 |
| 20260504211004 | 50 | 355 | 2.0 | 5.0 | 0.00 | 0.00 | 0.00 | 37 | 1015.1 |
| 20260504210503 | 50 | 240 | 1.0 | 6.0 | 0.00 | 0.00 | 0.00 | 38 | 1015.2 |
| 20260504210004 | 50 | 259 | 1.0 | 12.0 | 0.00 | 0.00 | 0.00 | 38 | 1015.2 |
| 20260504205503 | 50 | 274 | 7.0 | 12.0 | 0.00 | 0.00 | 0.00 | 39 | 1015.3 |
| 20260504205004 | 49 | 339 | 7.0 | 13.0 | 0.00 | 0.00 | 0.00 | 40 | 1015.4 |
| 20260504204503 | 49 | 284 | 7.0 | 13.0 | 0.00 | 0.00 | 0.00 | 41 | 1015.5 |
| 20260504204004 | 49 | 321 | 3.0 | 14.0 | 0.00 | 0.00 | 0.00 | 44 | 1015.4 |
| 20260504203504 | 49 | 323 | 5.0 | 14.0 | 0.00 | 0.00 | 0.00 | 50 | 1015.5 |
| 20260504203003 | 49 | 323 | 8.0 | 13.0 | 0.00 | 0.00 | 0.00 | 47 | 1015.5 |
| 20260504202504 | 49 | 308 | 9.0 | 14.0 | 0.00 | 0.00 | 0.00 | 41 | 1015.5 |
| 20260504202004 | 50 | 321 | 7.0 | 14.0 | 0.00 | 0.00 | 0.00 | 39 | 1015.5 |
| 20260504201504 | 50 | 284 | 5.0 | 10.0 | 0.00 | 0.00 | 0.00 | 36 | 1015.5 |
| 20260504201003 | 50 | 256 | 6.0 | 9.0 | 0.00 | 0.00 | 0.00 | 37 | 1015.5 |
| 20260504200504 | 50 | 234 | 5.0 | 10.0 | 0.00 | 0.00 | 0.00 | 33 | 1015.5 |
| 20260504200003 | 50 | 243 | 2.0 | 6.0 | 0.00 | 0.00 | 0.00 | 34 | 1015.4 |
| 20260504195504 | 50 | 264 | 6.0 | 10.0 | 0.00 | 0.00 | 0.00 | 33 | 1015.4 |
| 20260504195003 | 50 | 343 | 2.0 | 8.0 | 0.00 | 0.00 | 0.00 | 32 | 1015.4 |
| 20260504194504 | 50 | 330 | 2.0 | 6.0 | 0.00 | 0.00 | 0.00 | 32 | 1015.5 |
| 20260504194003 | 50 | 310 | 2.0 | 6.0 | 0.00 | 0.00 | 0.00 | 33 | 1015.5 |
| 20260504193504 | 50 | 334 | 0.0 | 0.0 | 0.00 | 0.00 | 0.00 | 32 | 1015.5 |
| 20260504193003 | 50 | 302 | 0.0 | 0.0 | 0.00 | 0.00 | 0.00 | 33 | 1015.5 |
| 20260504192504 | 50 | 313 | 0.0 | 0.0 | 0.00 | 0.00 | 0.00 | 32 | 1015.6 |
| 20260504192004 | 50 | 325 | 0.0 | 7.0 | 0.00 | 0.00 | 0.00 | 32 | 1015.6 |
| 20260504191504 | 50 | 304 | 6.0 | 10.0 | 0.00 | 0.00 | 0.00 | 33 | 1015.7 |
| 20260504191004 | 51 | 321 | 6.0 | 12.0 | 0.00 | 0.00 | 0.00 | 33 | 1015.7 |
| 20260504190504 | 51 | 338 | 7.0 | 13.0 | 0.00 | 0.00 | 0.00 | 33 | 1015.8 |
| 20260504190004 | 51 | 311 | 6.0 | 10.0 | 0.00 | 0.00 | 0.00 | 33 | 1015.8 |
| 20260504185503 | 51 | 30 | 2.0 | 8.0 | 0.00 | 0.00 | 0.00 | 33 | 1015.7 |
| 20260504185003 | 52 | 262 | 5.0 | 13.0 | 0.00 | 0.00 | 0.00 | 32 | 1015.9 |
| 20260504184503 | 53 | 280 | 7.0 | 12.0 | 0.00 | 0.00 | 0.00 | 32 | 1015.9 |
| 20260504184004 | 52 | 276 | 6.0 | 14.0 | 0.00 | 0.00 | 0.00 | 33 | 1016.0 |
| 20260504183503 | 51 | 278 | 0.0 | 0.0 | 0.00 | 0.00 | 0.00 | 33 | 1016.1 |
| 20260504183004 | 50 | 289 | 0.0 | 0.0 | 0.00 | 0.00 | 0.00 | 34 | 1016.1 |
| 20260504182504 | 49 | 285 | 0.0 | 12.0 | 0.00 | 0.00 | 0.00 | 37 | 1016.3 |
| 20260504182003 | 49 | 290 | 5.0 | 17.0 | 0.00 | 0.00 | 0.00 | 38 | 1016.3 |
| 20260504181504 | 49 | 292 | 5.0 | 13.0 | 0.00 | 0.00 | 0.00 | 37 | 1016.4 |
| 20260504181004 | 49 | 271 | 9.0 | 17.0 | 0.00 | 0.00 | 0.00 | 38 | 1016.5 |
| 20260504180504 | 49 | 243 | 7.0 | 15.0 | 0.00 | 0.00 | 0.00 | 38 | 1016.5 |
| 20260504180004 | 49 | 291 | 10.0 | 16.0 | 0.00 | 0.00 | 0.00 | 36 | 1016.6 |
| 20260504175503 | 49 | 292 | 7.0 | 17.0 | 0.00 | 0.00 | 0.00 | 35 | 1016.6 |
| 20260504175004 | 49 | 258 | 9.0 | 14.0 | 0.00 | 0.00 | 0.00 | 33 | 1016.5 |
| 20260504174503 | 49 | 252 | 11.0 | 18.0 | 0.00 | 0.00 | 0.00 | 34 | 1016.5 |
| 20260504174004 | 50 | 241 | 13.0 | 23.0 | 0.00 | 0.00 | 0.00 | 32 | 1016.4 |
| 20260504173503 | 52 | 263 | 8.0 | 23.0 | 0.00 | 0.00 | 0.00 | 30 | 1016.4 |
| 20260504173004 | 52 | 249 | 7.0 | 23.0 | 0.00 | 0.00 | 0.00 | 34 | 1016.5 |
| 20260504172504 | 51 | 271 | 11.0 | 20.0 | 0.00 | 0.00 | 0.00 | 33 | 1016.5 |
| 20260504172004 | 51 | 273 | 7.0 | 16.0 | 0.00 | 0.00 | 0.00 | 35 | 1016.6 |
| 20260504171504 | 50 | 243 | 11.0 | 20.0 | 0.00 | 0.00 | 0.00 | 36 | 1016.6 |
| 20260504171004 | 50 | 215 | 13.0 | 21.0 | 0.00 | 0.00 | 0.00 | 37 | 1016.7 |
| 20260504170503 | 50 | 242 | 10.0 | 20.0 | 0.00 | 0.00 | 0.00 | 35 | 1016.7 |
| 20260504151004 | 40 | 306 | 1.0 | 14.0 | 0.00 | 0.00 | 0.00 | 60 | 1017.9 |
| 20260504150503 | 40 | 286 | 9.0 | 16.0 | 0.00 | 0.00 | 0.00 | 60 | 1018.1 |
| 20260504141004 | 39 | 229 | 3.0 | 6.0 | 0.00 | 0.00 | 0.00 | 54 | 1018.0 |
| 20260504140503 | 39 | 225 | 3.0 | 6.0 | 0.00 | 0.00 | 0.00 | 53 | 1018.0 |
| 20260504130504 | 35 | 169 | 0.0 | 2.0 | 0.00 | 0.00 | 0.00 | 55 | 1017.6 |
| 20260504110504 | 37 | 240 | 2.0 | 3.0 | 0.00 | 0.00 | 0.00 | 48 | 1017.2 |
| 20260504100503 | 38 | 46 | 3.0 | 5.0 | 0.00 | 0.00 | 0.00 | 46 | 1017.3 |
| 20260504082003 | 39 | 259 | 3.0 | 7.0 | 0.00 | 0.00 | 0.00 | 46 | 1017.9 |
| 20260504081504 | 39 | 263 | 3.0 | 6.0 | 0.00 | 0.00 | 0.00 | 46 | 1017.9 |
| 20260504081004 | 39 | 267 | 3.0 | 6.0 | 0.00 | 0.00 | 0.00 | 46 | 1017.9 |
| 20260504080504 | 39 | 261 | 0.0 | 0.0 | 0.00 | 0.00 | 0.00 | 45 | 1017.9 |
| 20260504050504 | 41 | 303 | 2.0 | 3.0 | 0.00 | 0.00 | 0.00 | 43 | 1019.1 |
| 20260504050003 | 41 | 310 | 3.0 | 5.0 | 0.00 | 0.00 | 0.00 | 43 | 1019.1 |
| 20260504045504 | 41 | 309 | 3.0 | 3.0 | 0.00 | 0.00 | 0.00 | 43 | 1019.1 |
| 20260504045004 | 42 | 309 | 2.0 | 3.0 | 0.00 | 0.00 | 0.00 | 42 | 1019.2 |
| 20260504044504 | 42 | 309 | 2.0 | 3.0 | 0.00 | 0.00 | 0.00 | 42 | 1019.1 |
| 20260504044004 | 42 | 309 | 3.0 | 3.0 | 0.00 | 0.00 | 0.00 | 42 | 1019.2 |
| 20260504043504 | 42 | 308 | 3.0 | 5.0 | 0.00 | 0.00 | 0.00 | 41 | 1019.2 |
| 20260504043004 | 43 | 315 | 2.0 | 3.0 | 0.00 | 0.00 | 0.00 | 40 | 1019.2 |
| 20260504042504 | 43 | 311 | 1.0 | 3.0 | 0.00 | 0.00 | 0.00 | 39 | 1019.3 |
| 20260504042003 | 43 | 309 | 3.0 | 5.0 | 0.00 | 0.00 | 0.00 | 39 | 1019.3 |
| 20260504041503 | 43 | 318 | 3.0 | 6.0 | 0.00 | 0.00 | 0.00 | 38 | 1019.3 |
| 20260504041004 | 44 | 332 | 3.0 | 6.0 | 0.00 | 0.00 | 0.00 | 38 | 1019.2 |
| 20260504040503 | 44 | 328 | 3.0 | 8.0 | 0.00 | 0.00 | 0.00 | 38 | 1019.2 |
| 20260504040004 | 44 | 331 | 5.0 | 8.0 | 0.00 | 0.00 | 0.00 | 37 | 1019.2 |
| 20260504035503 | 44 | 326 | 5.0 | 8.0 | 0.00 | 0.00 | 0.00 | 37 | 1019.2 |
| 20260504035004 | 44 | 335 | 5.0 | 9.0 | 0.00 | 0.00 | 0.00 | 37 | 1019.2 |
| 20260504034504 | 44 | 339 | 4.0 | 8.0 | 0.00 | 0.00 | 0.00 | 37 | 1019.3 |
| 20260504034004 | 44 | 330 | 5.0 | 8.0 | 0.00 | 0.00 | 0.00 | 37 | 1019.3 |
| 20260504033504 | 45 | 334 | 5.0 | 9.0 | 0.00 | 0.00 | 0.00 | 37 | 1019.2 |
| 20260504033004 | 45 | 329 | 5.0 | 9.0 | 0.00 | 0.00 | 0.00 | 36 | 1019.3 |
| 20260504032503 | 45 | 324 | 5.0 | 12.0 | 0.00 | 0.00 | 0.00 | 36 | 1019.2 |
| 20260504032004 | 45 | 310 | 5.0 | 10.0 | 0.00 | 0.00 | 0.00 | 36 | 1019.2 |
| 20260504031503 | 45 | 307 | 6.0 | 10.0 | 0.00 | 0.00 | 0.00 | 36 | 1019.2 |
| 20260504031004 | 45 | 313 | 5.0 | 10.0 | 0.00 | 0.00 | 0.00 | 36 | 1019.2 |
| 20260504030503 | 45 | 312 | 6.0 | 10.0 | 0.00 | 0.00 | 0.00 | 36 | 1019.2 |
| 20260504030004 | 45 | 306 | 5.0 | 8.0 | 0.00 | 0.00 | 0.00 | 36 | 1019.2 |
| 20260504025503 | 45 | 332 | 6.0 | 10.0 | 0.00 | 0.00 | 0.00 | 36 | 1019.2 |
| 20260504025003 | 45 | 308 | 6.0 | 9.0 | 0.00 | 0.00 | 0.00 | 35 | 1019.2 |
| 20260504024504 | 46 | 322 | 5.0 | 9.0 | 0.00 | 0.00 | 0.00 | 35 | 1019.2 |
| 20260504024003 | 46 | 316 | 5.0 | 8.0 | 0.00 | 0.00 | 0.00 | 35 | 1019.1 |
| 20260504023503 | 46 | 315 | 5.0 | 10.0 | 0.00 | 0.00 | 0.00 | 34 | 1019.0 |